Weather History for New Braunfels, TX

Change the Weather History Date:

Sunday, September 8, 2013

  Actual Average (KSAT) Record (KSAT)
Temperature  
Mean Temperature 79 °F 82 °F  
Max Temperature 89 °F 92 °F 101 °F (1993)
Min Temperature 71 °F 71 °F 59 °F (1918)
Degree Days  
Heating Degree Days 0 0  
Month to date heating degree days 0  
Since 1 July heating degree days 0  
Cooling Degree Days 14 17  
Month to date cooling degree days 142  
Year to date cooling degree days 2533  
Growing Degree Days 29 (Base 50)    
Moisture  
Dew Point 71 °F    
Average Humidity 85    
Maximum Humidity 100    
Minimum Humidity 55    
Precipitation  
Precipitation 0.10 in 0.11 in 2.83 in (2010)
Month to date precipitation 0.86  
Year to date precipitation 21.80  
Snow  
Snow 0.00 in - - ()
Month to date snowfall  
Since 1 July snowfall  
Since 1 September snowfall  
Snow Depth -    
Sea Level Pressure  
Sea Level Pressure 29.94 in    
Wind  
Wind Speed 3 mph (ENE)    
Max Wind Speed 12 mph    
Max Gust Speed -    
Visibility 9 miles    
Events Rain , Thunderstorm    
T = Trace of Precipitation, MM = Missing Value Source: NWS Daily Summary

Daily Weather History Graph

Daily Weather History Graph

Search for Another Location

Airport:

Trip Planner

Search our weather history database for the weather conditions in past years. The results will help you decide how hot, cold, wet, or windy it might be!

Date:

Astronomy

Sep. 08, 2013 Rise Set
Actual Time 7:13 AM CDT 7:45 PM CDT
Civil Twilight 6:49 AM CDT 8:09 PM CDT
Nautical Twilight 6:21 AM CDT 8:37 PM CDT
Astronomical Twilight 5:52 AM CDT 9:06 PM CDT
Moon 10:13 AM CDT (9/8) 9:42 PM CDT (9/8)
Length of Visible Light 13h 20m
Length of Day
12h 32m
Waxing Crescent, 11% of the Moon is Illuminated
Sep 8
Waxing Crescent
Sep 12
First Quarter
Sep 19
Full
Sep 26
Last Quarter
Oct 4
New

Hourly Weather History & Observations

Time (CDT) Temp. Heat Index Dew Point Humidity Pressure Visibility Wind Dir Wind Speed Gust Speed Precip Events Conditions
12:51 AM 75.0 °F - 72.0 °F 90% 29.94 in 10.0 mi ESE 3.5 mph - N/A   Partly Cloudy
1:51 AM 73.0 °F - 71.1 °F 93% 29.94 in 10.0 mi Calm Calm - N/A   Mostly Cloudy
2:37 AM 73.4 °F - 71.6 °F 94% 29.95 in 10.0 mi Calm Calm - N/A   Scattered Clouds
2:51 AM 73.0 °F - 71.1 °F 93% 29.93 in 10.0 mi Calm Calm - N/A   Partly Cloudy
3:06 AM 73.4 °F - 71.6 °F 94% 29.96 in 10.0 mi Calm Calm - N/A   Mostly Cloudy
3:20 AM 73.4 °F - 71.6 °F 94% 29.96 in 10.0 mi Calm Calm - N/A   Scattered Clouds
3:51 AM 73.0 °F - 71.1 °F 93% 29.91 in 10.0 mi West 4.6 mph - N/A   Clear
4:51 AM 71.1 °F - 71.1 °F 100% 29.91 in 10.0 mi Calm Calm - N/A   Clear
5:51 AM 72.0 °F - 71.1 °F 97% 29.93 in 10.0 mi Calm Calm - N/A   Clear
6:24 AM 73.4 °F - 71.6 °F 94% 29.96 in 10.0 mi ENE 5.8 mph - N/A   Mostly Cloudy
6:51 AM 73.0 °F - 72.0 °F 96% 29.94 in 10.0 mi NE 4.6 mph - N/A   Mostly Cloudy
7:15 AM 73.4 °F - 71.6 °F 94% 29.96 in 10.0 mi NE 4.6 mph - N/A   Overcast
7:33 AM 73.4 °F - 71.6 °F 94% 29.97 in 9.0 mi NE 3.5 mph - N/A   Overcast
7:51 AM 73.9 °F - 72.0 °F 93% 29.95 in 9.0 mi Calm Calm - N/A   Overcast
8:10 AM 75.2 °F - 73.4 °F 94% 29.97 in 9.0 mi ENE 3.5 mph - N/A   Scattered Clouds
8:18 AM 75.2 °F - 73.4 °F 94% 29.98 in 9.0 mi ENE 5.8 mph - N/A   Mostly Cloudy
8:27 AM 75.2 °F - 73.4 °F 94% 29.98 in 9.0 mi ENE 4.6 mph - N/A   Scattered Clouds
8:51 AM 75.9 °F - 73.0 °F 91% 29.96 in 10.0 mi ENE 5.8 mph - N/A   Mostly Cloudy
9:51 AM 80.1 °F 84.5 °F 73.9 °F 81% 29.95 in 10.0 mi NE 6.9 mph - N/A   Mostly Cloudy
10:51 AM 84.0 °F 90.2 °F 73.0 °F 69% 29.96 in 10.0 mi NNE 6.9 mph - N/A   Mostly Cloudy
11:02 AM 82.4 °F 87.2 °F 71.6 °F 70% 29.99 in 10.0 mi East 5.8 mph - N/A   Mostly Cloudy
11:15 AM 82.4 °F 87.2 °F 71.6 °F 70% 29.98 in 10.0 mi Variable 6.9 mph - N/A   Mostly Cloudy
11:51 AM 84.9 °F 90.1 °F 71.1 °F 63% 29.95 in 10.0 mi Variable 3.5 mph - N/A   Overcast
12:51 PM 87.1 °F 91.3 °F 69.1 °F 55% 29.92 in 10.0 mi ENE 5.8 mph - N/A   Mostly Cloudy
1:18 PM 87.8 °F 92.6 °F 69.8 °F 55% 29.95 in 10.0 mi East 11.5 mph - 0.00 in Rain , Thunderstorm Thunderstorms and Rain
1:37 PM 77.0 °F - 71.6 °F 83% 29.95 in 5.0 mi SE 5.8 mph - 0.01 in Rain , Thunderstorm Thunderstorms and Rain
1:49 PM 75.2 °F - 71.6 °F 89% 29.96 in 2.0 mi NNW 3.5 mph - 0.06 in Rain , Thunderstorm Thunderstorms and Rain
1:51 PM 75.9 °F - 71.1 °F 85% 29.93 in 3.0 mi North 3.5 mph - 0.06 in Rain , Thunderstorm Thunderstorms and Rain
2:42 PM 73.4 °F - 71.6 °F 94% 29.95 in 9.0 mi ENE 3.5 mph - 0.04 in Rain Light Rain
2:51 PM 73.9 °F - 71.1 °F 91% 29.91 in 10.0 mi Calm Calm - 0.04 in Rain , Thunderstorm Thunderstorms and Rain
3:31 PM 75.2 °F - 71.6 °F 89% 29.94 in 10.0 mi NNW 3.5 mph - 0.00 in   Mostly Cloudy
3:51 PM 75.9 °F - 72.0 °F 87% 29.90 in 10.0 mi NNW 4.6 mph - 0.00 in Rain Light Rain
4:51 PM 82.9 °F 89.4 °F 73.9 °F 74% 29.86 in 10.0 mi SE 6.9 mph - 0.00 in   Clear
5:51 PM 84.9 °F 87.6 °F 66.9 °F 55% 29.87 in 10.0 mi SSE 8.1 mph - N/A   Clear
6:51 PM 82.9 °F 85.8 °F 68.0 °F 60% 29.89 in 10.0 mi SSE 8.1 mph - N/A   Clear
7:51 PM 78.1 °F - 69.1 °F 74% 29.90 in 10.0 mi South 3.5 mph - N/A   Clear
8:51 PM 75.0 °F - 70.0 °F 84% 29.91 in 10.0 mi SE 6.9 mph - N/A   Clear
9:51 PM 73.9 °F - 70.0 °F 87% 29.92 in 10.0 mi SE 5.8 mph - N/A   Clear
10:51 PM 73.0 °F - 69.1 °F 87% 29.92 in 10.0 mi SE 4.6 mph - N/A   Clear
11:51 PM 72.0 °F - 69.1 °F 91% 29.91 in 10.0 mi Calm Calm - N/A   Clear